Tracking 19794 objects as of 21-Jul-2019
HD Live streaming from Space Station
objects crossing your sky now

EUROBIRD 4A(EUTELSAT W1)

Track EUROBIRD 4A(EUTELSAT W1) now!
EUROBIRD 4A(EUTELSAT W1) is classified as:


NORAD ID: 26487
Int'l Code: 2000-052A
Perigee: 36,354.4 km
Apogee: 36,426.8 km
Inclination: 6.1 °
Period: 1,466.7 minutes
Semi major axis: 42761 km
RCS: 8.6539 m2 (large)
Launch date: September 6, 2000
Source: European Telecommunications Satellite Organization (EUTE)
Launch site: FRENCH GUIANA (FRGUI)

Twenty-eight channels, Europe, Atlantic Islands, North Africa, Middle East, Central Asia.
aabbcc
Your satellite tracking list
Your tracking list is empty




NASA's NSSDC Master Catalog

Two Line Element Set (TLE):
1 26487U 00052A   19200.63311684 -.00000099 +00000-0 +00000-0 0  9997
2 26487 006.0895 063.8707 0008465 238.6858 333.2135 00.98179739068390
Source of the keplerian elements: AFSPC